Home > Weather > Freehold > Past weeks

Flag for USA Past Weather in Freehold, New Jersey, USA — Yesterday and Last 2 Weeks

Now
83 °F

Sunny.


Feels Like: 83 °F
Forecast: 68 / 85 °F
Wind: 12 mph from Northeast

Location: Belmar-Farmdale

Current Time: Aug 27, 2016 at 11:21:35 AM

Latest Report: Aug 27, 2016 at 10:56 AM


Visibility: 10 mi

Pressure: 30.20 "Hg

Humidity: 44%

Dew Point: 59 °F

Location of FreeholdLocation

Past Weather in Freehold — Graph

°F

Freehold Temperature Yesterday

Maximum temperature yesterday: 93 °F (at 3:56 PM)
Minimum temperature yesterday: 72 °F (at 3:56 AM)
Average temperature yesterday: 81 °F

High & Low Weather Summary for the Past Weeks

 TemperatureHumidityPressure
High96 °F (Aug 13, 5:56 PM)97% (Aug 19, 12:56 AM)30.35 "Hg (Aug 19, 12:56 AM)
Low55 °F (Aug 23, 5:56 AM)40% (Aug 23, 11:56 AM)29.80 "Hg (Aug 21, 4:56 PM)
Average79 °F73%30.04 "Hg
* Reported Aug 12 9:56 AM — Aug 27 9:56 AM, Freehold, Weather by CustomWeather, © 2016

Note: Actual official high and low records may vary slightly from our data, if they occured in-between our weather recording intervals... More about our weather records

Advertising

Freehold Weather History for the Previous 24 Hours

Scroll right to see more
 ConditionsComfort  
Time TempWeatherWind HumidityBarometerVisibility
9:56 AM
Sat, Aug 27
82 °FSunny.8 mph49%30.20 "Hg10 mi
8:56 AM79 °FSunny.8 mph58%30.19 "Hg10 mi
7:56 AM75 °FSunny.7 mph69%30.18 "Hg10 mi
6:56 AM69 °FClear.5 mph84%30.17 "Hg10 mi
5:56 AM69 °FClear.6 mph87%30.15 "Hg10 mi
4:56 AM71 °FClear.3 mph81%30.13 "Hg10 mi
3:56 AM71 °FClear.3 mph81%30.12 "Hg10 mi
2:56 AM74 °FClear.3 mph74%30.11 "Hg10 mi
1:56 AM75 °FClear.7 mph71%30.11 "Hg10 mi
12:56 AM74 °FClear.6 mph74%30.10 "Hg10 mi
11:56 PM
Fri, Aug 26
75 °FClear.6 mph74%30.09 "Hg10 mi
10:56 PM77 °FClear.5 mph69%30.08 "Hg10 mi
9:56 PM78 °FClear.5 mph71%30.07 "Hg10 mi
8:56 PM81 °FClear.3 mph65%30.05 "Hg10 mi
7:56 PM86 °FOvercast.6 mph55%30.03 "Hg10 mi
6:56 PM88 °FPassing clouds.6 mph55%30.02 "Hg10 mi
5:56 PM90 °FPassing clouds.8 mph48%30.01 "Hg10 mi
4:56 PM93 °FPassing clouds.10 mph47%30.00 "Hg10 mi
3:56 PM93 °FScattered clouds.12 mph47%30.00 "Hg10 mi
2:56 PM91 °FBroken clouds.9 mph50%30.00 "Hg10 mi
1:56 PM91 °FScattered clouds.14 mph50%30.01 "Hg10 mi
12:56 PM89 °FPassing clouds.12 mph55%30.00 "Hg10 mi
11:56 AM88 °FScattered clouds.10 mph59%30.01 "Hg10 mi
Weather by CustomWeather, © 2016

See weather overviewHow to use our weather pages